Home > Weather > Luckenwalde > Past weeks

Flag for Germany Weather for the Past 2 Weeks in Luckenwalde, Brandenburg, Germany

Now
46 °F

Light rain. Passing clouds.


Feels Like: 40 °F
Forecast: 38 / 45 °F
Wind: 15 mph from South

Location: Holzdorf

Current Time: Feb 9, 2016 at 7:49:01 PM

Latest Report: Feb 9, 2016 at 7:20 PM


Visibility: N/A

Pressure: 29.06 "Hg

Humidity: 87%

Dew point: 43 °F

Location of LuckenwaldeLocation

Historic Weather in Luckenwalde — Graph

°F

Luckenwalde Temperature Yesterday

Maximum temperature yesterday: 54 °F (at 2:20 PM)
Minimum temperature yesterday: 43 °F (at 7:20 AM)
Average temperature yesterday: 47 °F

High & Low Weather Summary for the Past Weeks

 TemperatureHumidityPressure
High54 °F (Jan 27, 11:20 AM)100% (Jan 26, 3:20 AM)30.30 "Hg (Jan 26, 3:20 AM)
Low32 °F (Jan 29, 1:20 AM)53% (Jan 28, 2:20 PM)29.12 "Hg (Feb 9, 6:20 PM)
Average44 °F76%29.92 "Hg
* Reported Jan 25 6:20 PM — Feb 9 6:20 PM, Luckenwalde, Weather by CustomWeather, © 2016

Note: Actual official high and low records may vary slightly from our data, if they occured in-between our weather recording intervals... More about our weather records

Advertising

Luckenwalde Weather History for the Previous 24 Hours

 ConditionsComfort  
Time TempWeatherWind HumidityBarometerVisibility
6:20 PM
Tue, Feb 9
46 °FLight rain. Passing clouds.15 mph82%29.12 "HgN/A
5:20 PM45 °FLight rain. Passing clouds.14 mph87%29.15 "HgN/A
5:00 PM45 °FPartly sunny.13 mph87%29.15 "HgN/A
4:20 PM45 °FPartly sunny.14 mph87%29.21 "HgN/A
3:20 PM46 °FLight rain. Broken clouds.14 mph71%29.27 "HgN/A
2:58 PM48 °FLight rain. Broken clouds.12 mph66%29.27 "HgN/A
2:20 PM48 °FBroken clouds.14 mph66%29.33 "HgN/A
1:20 PM48 °FPartly sunny.10 mph62%29.36 "HgN/A
12:20 PM48 °FPartly sunny.15 mph62%29.39 "HgN/A
11:20 AM48 °FPartly sunny.15 mph58%29.45 "HgN/A
10:20 AM48 °FScattered clouds.18 mph58%29.45 "HgN/A
9:20 AM46 °FPassing clouds.13 mph57%29.47 "HgN/A
8:20 AM46 °FScattered clouds.17 mph53%29.47 "HgN/A
7:20 AM45 °FPassing clouds.15 mph57%29.47 "HgN/A
6:20 AM46 °FPassing clouds.18 mph53%29.47 "HgN/A
5:20 AM46 °FPassing clouds.22 mph53%29.47 "HgN/A
4:20 AM46 °FPassing clouds.22 mph57%29.45 "HgN/A
3:20 AM46 °FPassing clouds.20 mph57%29.45 "HgN/A
2:20 AM45 °FPassing clouds.17 mph61%29.45 "HgN/A
1:20 AM45 °FPassing clouds.18 mph66%29.45 "HgN/A
12:20 AM45 °FPassing clouds.17 mph66%29.45 "HgN/A
11:20 PM
Mon, Feb 8
45 °FPassing clouds.17 mph66%29.42 "HgN/A
10:20 PM45 °FPassing clouds.16 mph66%29.45 "HgN/A
9:20 PM46 °FPassing clouds.20 mph62%29.42 "HgN/A
8:20 PM46 °FPartly cloudy.10 mph71%29.39 "HgN/A
7:20 PM46 °FPartly cloudy.12 mph71%29.42 "HgN/A
Weather by CustomWeather, © 2016

See weather overviewHow to use our weather pages